{"data":{"norad_id":68842,"epoch":"2026-05-25T04:00:03.998880Z","epoch_age_seconds":71053,"freshness":"FRESH","line1":"1 68842U 26094D   26145.16671295 -.00063714  00000+0 -11763-2 0  9996","line2":"2 68842  97.2844 159.8796 0001419  83.0025  28.4727 15.49261419  5672","mean_motion":15.49261419,"eccentricity":0.0001419,"inclination_deg":97.2844,"raan_deg":159.8796,"arg_perigee_deg":83.0025,"mean_anomaly_deg":28.4727,"bstar":-0.0011763,"rev_number":567,"period_min":92.947515657459,"perigee_km":417.92094825081,"apogee_km":419.84994322091,"semimajor_km":6797.0224457359,"source":"CELESTRAK","updated_at":"2026-05-25T13:38:22.046106Z"}}